Regional Weather Roundup
Issued by NWS Mobile, AL

Home | Current Version | Previous Version | Text Only | Print | Product List | Glossary On
Versions: 1 2 3 4 5 6 7 8 9 10 11 12 13 14 15 16 17 18 19 20 21 22 23 24 25 26 27 28 29 30 31 32 33 34 35 36 37 38 39 40 41 42 43 44 45 46 47 48 49 50
000
ASUS44 KMOB 022110
RWRMOB
REGIONAL WEATHER ROUNDUP
NATIONAL WEATHER SERVICE MOBILE AL
400 PM CDT TUE SEP 02 2014

NOTE: "FAIR" INDICATES FEW OR NO CLOUDS BELOW 12,000 FEET WITH NO
      SIGNIFICANT WEATHER AND/OR OBSTRUCTIONS TO VISIBILITY.

  * THESE STATIONS ARE PART OF THE UNIVERSITY OF SOUTH ALABAMA
    MESONET AND ARE NOT UNDER NWS OR FAA QUALITY CONTROL.

ALZ061>064-022200-
COASTAL ALABAMA

CITY           SKY/WX    TMP DP  RH WIND       PRES   REMARKS
MOBILE REG APT CLOUDY    78  76  93 CALM      30.03S
BROOKLEY FIELD LGT RAIN  82  76  81 NW3       30.04R
USA CAMPUS*      N/A     77  73  88 CALM      30.02S
DOG RIVER*       N/A     82  75  78 W3        30.02F


CITY           SKY/WX    TMP DP  RH WIND       PRES   REMARKS
MOUNT VERNON*    N/A     72  70  94 CALM      30.04S
SARALAND*      NOT AVBL
BAY MINETTE*   NOT AVBL
LOXLEY*          N/A     79  75  89 N5        30.02S
ROBERTSDALE*     N/A     81  75  83 CALM      30.01F
FAIRHOPE*        N/A     84  77  79 S8        30.00F
ELBERTA*         N/A     88  77  70 S3        30.00F HX 100
FOLEY*         NOT AVBL
GRAND BAY*       N/A     81  72  74 W3        30.01S
DAUPHIN ISLND* NOT AVBL
BON SCOUR NWR* NOT AVBL
GULF SHORES    CLOUDY    86  76  70 S8        30.00F HX  96

$$

ALZ051>060-022200-
INTERIOR SOUTHWEST AND SOUTH CENTRAL ALABAMA

CITY           SKY/WX    TMP DP  RH WIND       PRES   REMARKS
GREENVILLE     CLOUDY    92  68  45 VRB5      29.99F HX  96
EVERGREEN      CLOUDY    91  72  53 W7        30.01R HX  98
CASTLEBERRY*   NOT AVBL
ATMORE*          N/A     84  73  70 SW5       30.03F
DIXIE*         NOT AVBL
ANDALUSIA/OPP  PTSUNNY   99  69  37 SW8       29.99F HX 105
ANDALUSIA*       N/A     88  70  55 S13       29.97F
FLORALA APT    TSTM      79  73  83 CALM      30.02F
FLORALA*         N/A     86  70  58 W8        29.97S

$$

FLZ001>006-022200-
WESTERN FLORIDA PANHANDLE

CITY           SKY/WX    TMP DP  RH WIND       PRES   REMARKS
PENSACOLA      CLOUDY    85  73  67 SW9       30.01F
NAS PENSACOLA  CLOUDY    86  74  67 S8        30.00F
MILTON         CLOUDY    86  72  62 SW12      30.01F
WHTNG S FIELD  CLOUDY    87  74  64 SW7       30.01F HX  95


CITY           SKY/WX    TMP DP  RH WIND       PRES   REMARKS
WALNUT HILL*   NOT AVBL
JAY*           NOT AVBL
DUKE FIELD     PTSUNNY   86  78  75 S6        29.99F HX  99
CRESTVIEW      PTSUNNY   89  74  60 S9        30.01F HX  98
VALPARAISO     PTSUNNY   89  74  62 SW8       30.00F HX  97
DESTIN         PTSUNNY   89  76  65 VRB6      30.00F HX 100

$$

MSZ076-079-022200-
INTERIOR SOUTHEAST MISSISSIPPI

CITY           SKY/WX    TMP DP  RH WIND       PRES   REMARKS
LEAKESVILLE*     N/A     84  72  65 S12         N/A
AGRICOLA*      NOT AVBL

$$

MARINE OBSERVATIONS

STATION/POSITION TIME  TEMP    WIND        PRES    WAVE
                       AIR SEA DIR/SP/G            HT/PER
                 (UTC) (F)     (DEG/KT/KT) (MB)    (FT/S)
PASCAGOULA       2100   86     190/  5/  6 1016.4R
PETIT BOIS ISLND 2100   86     180/  7/  9 1016.7R
GRAND BAY        2000   85     170/  8     1018.0S
KATRINA CUT      2000   85     170/  8     1016.9F
CEDAR POINT      2000   84     190/  9     1016.9S
E DAUPHIN ISLAND 2100   85     180/  8/ 10 1016.1F
MIDDLE BAY LIGHT 2000   85     180/ 10     1016.3F
USCG MOBILE BAY  2100   83 87  280/  4/  7 1015.6R
STATE DOCKS      2100   86 88              1016.4R
MEAHER PARK      2000   85     170/  5     1015.2F
WEEKS BAY        2000   89                   N/A
FORT MORGAN      2100   85     190/ 10/ 11 1015.8R
12 S ORANGE BCH  2100   85 87  170/ 10/ 12 1015.9F   2/ 6
PENSACOLA BAY    2100   87 89  170/  3/  9 1016.3S
64 S DAUPHIN ISL 2100   83 88  130/  8/ 12 1016.4F
67 S FORT MORGAN 2000   83                 1016.6F

$$

SELECTED LOCATIONS ACROSS THE REGION

CITY           SKY/WX    TMP DP  RH WIND       PRES   REMARKS
NEW ORLEANS    PTSUNNY   90  71  53 S14       29.99F HX  96
GULFPORT       MOSUNNY   89  76  65 S10       30.00F HX 100
PASCAGOULA AP  CLOUDY    85  76  74 SW3       30.02R
PASCAGOULA*      N/A     86  75  70 S3        30.01S HX  95
HATTIESBURG    PTSUNNY   84  75  74 S6        30.01F
LAUREL         CLOUDY    88  72  58 S7        30.03S
MERIDIAN       CLOUDY    82  72  71 N6        30.01F
JACKSON        TSTM      79  75  87 N8        29.98F
MONTGOMERY     MOSUNNY   95  67  39 SW7       29.98F HX  99
TROY           MOSUNNY   94  67  41 W7        29.99F HX  97
KINSTON*       NOT AVBL
GENEVA*          N/A     95  66  38 NW5       29.97F HX  98
ASHFORD*         N/A     88  70  55 S13       29.97F
DOTHAN         MOSUNNY   97  65  34 SW9       30.01F HX  99
PANAMA CITY    MOSUNNY   91  72  53 MISG      29.98F HX  98

$$




USA.gov is the U.S. government's official web portal to all federal, state and local government web resources and services.